FW5243 Weather Reports


time (UTC)temp
F
wind
direction
speed
knots
gust
knots
rain 1hr
in
rain 24hr
in
rain mn
in
humidity
%
barometer
mb
20260507040048 42 360 0.0 0.0 0.00 0.19 0.00 95 1013.2
20260507034603 42 360 0.0 0.0 0.00 0.19 0.19 94 1013.1
20260507033101 43 360 0.0 0.0 0.00 0.19 0.19 94 1013.1
20260507031543 43 360 0.0 0.0 0.00 0.19 0.19 94 1012.9
20260507030041 44 360 0.0 0.0 0.00 0.19 0.19 94 1013.2
20260507024551 44 360 0.0 0.0 0.00 0.19 0.19 93 1013.2
20260507023039 45 360 0.0 0.0 0.00 0.19 0.19 93 1013.2
20260507021536 45 360 0.0 2.6 0.00 0.19 0.19 94 1013.4
20260507020036 45 360 0.0 0.0 0.00 0.19 0.19 94 1013.2
20260507014534 45 360 0.0 0.0 0.00 0.19 0.19 94 1013.6
20260507013036 45 360 0.0 0.0 0.00 0.19 0.19 93 1013.6
20260507011533 45 360 0.0 3.5 0.00 0.19 0.19 94 1013.4
20260507010036 45 77 0.0 4.3 0.00 0.19 0.19 93 1013.4
20260507004527 45 51 0.0 3.5 0.00 0.19 0.19 94 1013.2
20260507003025 45 80 0.0 1.7 0.00 0.19 0.19 94 1012.9
20260507001528 45 9 0.0 0.0 0.00 0.19 0.19 94 1012.5
20260507000025 45 59 0.0 3.5 0.00 0.19 0.19 94 1012.2
20260506234540 45 317 1.7 6.1 0.00 0.19 0.19 94 1012.2
20260506233018 46 350 0.9 5.2 0.00 0.19 0.19 94 1011.8
20260506231517 46 188 0.0 2.6 0.00 0.19 0.19 94 1011.9
20260506230017 46 56 1.7 5.2 0.01 0.19 0.19 94 1011.8
20260506224524 46 40 2.6 7.8 0.01 0.19 0.19 94 1011.7
20260506223012 46 50 1.7 5.2 0.01 0.19 0.19 94 1011.4
20260506221511 46 86 2.6 8.7 0.01 0.19 0.19 94 1011.0
20260506220110 46 344 1.7 8.7 0.02 0.18 0.18 94 1010.8
20260506214503 47 17 0.9 8.7 0.03 0.18 0.18 93 1010.6
20260506213059 48 70 1.7 7.0 0.04 0.18 0.18 94 1010.3
20260506211558 48 71 1.7 6.1 0.04 0.18 0.18 94 1010.1
20260506210054 48 104 1.7 5.2 0.04 0.16 0.16 94 1009.7
20260506204551 49 109 1.7 7.8 0.04 0.15 0.15 93 1009.4
20260506203056 49 100 0.9 7.8 0.03 0.14 0.14 93 1008.8
20260506201545 50 75 2.6 7.0 0.03 0.14 0.14 93 1008.6
20260506200043 51 360 3.5 13.9 0.01 0.12 0.12 91 1008.4
20260506194544 54 360 3.5 8.7 0.00 0.11 0.11 87 1008.3
20260506193042 59 84 4.3 7.8 0.00 0.11 0.11 86 1007.7
20260506191537 60 196 2.6 7.0 0.00 0.11 0.11 87 1007.2
20260506190038 60 360 1.7 8.7 0.00 0.11 0.11 88 1007.4
20260506184537 59 179 0.9 7.0 0.00 0.11 0.11 89 1007.4
20260506183038 59 360 2.6 5.2 0.00 0.11 0.11 89 1007.6
20260506181540 59 360 1.7 7.8 0.00 0.11 0.11 91 1007.6
20260506180033 58 130 0.9 4.3 0.00 0.11 0.11 94 1007.6
20260506174534 58 130 0.0 0.9 0.00 0.11 0.11 94 1007.6
20260506173038 58 128 0.0 1.7 0.00 0.11 0.11 94 1007.6
20260506171531 58 157 0.0 1.7 0.00 0.11 0.11 93 1007.5
20260506170030 58 136 0.0 3.5 0.00 0.11 0.11 93 1007.6
20260506164530 58 157 0.9 4.3 0.00 0.11 0.11 93 1007.7
20260506163029 57 166 0.0 6.1 0.01 0.11 0.11 93 1007.8
20260506161528 57 153 0.9 4.3 0.01 0.11 0.11 93 1007.9
20260506160037 58 153 0.0 2.6 0.02 0.11 0.11 94 1008.0
20260506154527 57 136 0.0 4.3 0.03 0.11 0.11 94 1007.8
20260506153026 57 146 0.0 3.5 0.02 0.10 0.10 94 1008.0
20260506151526 57 171 0.0 3.5 0.02 0.10 0.10 94 1008.1
20260506150025 56 162 0.0 4.3 0.01 0.09 0.09 94 1007.8
20260506144524 56 161 0.9 3.5 0.00 0.08 0.08 94 1008.0
20260506143024 56 160 0.0 2.6 0.02 0.08 0.08 94 1008.0
20260506141523 56 172 0.9 7.0 0.02 0.08 0.08 93 1008.0
20260506140022 55 124 0.9 5.2 0.03 0.08 0.08 93 1007.8
20260506134524 55 148 1.7 4.3 0.03 0.07 0.07 93 1007.9
20260506133020 55 130 0.0 2.6 0.03 0.06 0.06 92 1008.1
20260506131537 55 175 0.0 0.0 0.03 0.06 0.06 92 1008.6
20260506130034 55 180 0.0 0.0 0.03 0.05 0.05 92 1008.7
20260506124518 55 180 0.0 0.0 0.02 0.04 0.04 92 1008.9
20260506123017 55 180 0.0 0.0 0.02 0.03 0.03 92 1008.6
20260506121516 55 180 0.0 0.0 0.02 0.03 0.03 91 1008.4
20260506120019 55 244 0.0 0.0 0.02 0.02 0.02 90 1008.3
20260506114518 55 244 0.0 2.6 0.02 0.02 0.02 89 1008.6
20260506113012 55 244 0.9 2.6 0.01 0.01 0.01 87 1008.3
20260506111511 56 291 0.9 3.5 0.01 0.01 0.01 86 1008.4
20260506110008 56 355 0.9 2.6 0.00 0.00 0.00 85 1008.4
20260506104507 58 360 0.9 3.5 0.00 0.00 0.00 82 1008.5
20260506103007 57 360 1.7 3.5 0.00 0.00 0.00 82 1008.2
20260506101506 57 101 0.0 2.6 0.00 0.00 0.00 84 1008.1
20260506094503 58 99 0.0 0.0 0.00 0.00 0.00 83 1007.9
20260506093004 58 99 0.0 0.9 0.00 0.00 0.00 79 1008.0
20260506091501 59 360 0.0 1.7 0.00 0.00 0.00 80 1007.9
20260506090001 60 360 0.0 2.6 0.00 0.00 0.00 76 1007.9
20260506084600 62 99 0.9 4.3 0.00 0.00 0.00 66 1007.9
20260506083108 61 360 0.9 4.3 0.00 0.00 0.00 66 1008.1
20260506081558 58 329 0.0 0.0 0.00 0.00 0.00 75 1008.2
20260506073054 57 360 0.0 0.0 0.00 0.00 0.00 84 1007.9
20260506071553 57 328 0.0 0.0 0.00 0.00 0.00 85 1008.2
20260506061547 58 360 0.0 0.0 0.00 0.00 0.00 87 1008.7
20260506044535 60 332 0.0 1.7 0.00 0.00 0.00 77 1009.5
20260506043029 62 151 0.0 0.0 0.00 0.00 0.00 73 1009.3
20260506041526 63 151 0.0 1.7 0.00 0.00 0.00 69 1009.5